Overview Statistics Trail Chart Weather Telemetry Raw packets
 

This is the latest recevied weather packets stored in our database for station/object KB9OQF-5. If no packets are shown the sender has not sent any weather packets the latest 10 day(s).

<< 9 10 11 12 13 >>
Time Temp. Humidity Pressure Rain* Wind** Luminosity Snow
1787913680 15° C 87% 990 hPa 0 mm - - -
1787912630 15.56° C 86% 990 hPa 0 mm - - -
1787908779 15.56° C 85% 989 hPa 0 mm - - -
1787907729 16.11° C 85% 989 hPa 0 mm - - -
1787900380 16.67° C 82% 988 hPa 0 mm - - -
1787896404 17.78° C 79% 988 hPa 0 mm - - -
1787896139 17.78° C 79% 988 hPa 0 mm - - -
1787895829 17.78° C 79% 988 hPa 0 mm - - -
1787895647 17.78° C 78% 988 hPa 0 mm - - -
1787895130 17.78° C 78% 988 hPa 0 mm - - -
1787894080 17.78° C 78% 988 hPa 0 mm - - -
1787893816 17.78° C 78% 988 hPa 0 mm - - -
1787893730 17.78° C 78% 988 hPa 0 mm - - -
1787892329 17.78° C 76% 988 hPa 0 mm - - -
1787886385 19.44° C 72% 987 hPa 0 mm - - -
1787883580 20.56° C 71% 987 hPa 0 mm - - -
1787883230 20.56° C 71% 987 hPa 0 mm - - -
1787882880 21.11° C 71% 987 hPa 0 mm - - -
1787882179 21.11° C 69% 987 hPa 0 mm - - -
1787881830 21.11° C 68% 987 hPa 0 mm - - -
1787837762 20.56° C 98% 985 hPa 0 mm - - -
1787837729 20.56° C 98% 985 hPa 0 mm - - -
1787836679 20° C 98% 984 hPa 0 mm - - -
1787834231 18.89° C 98% 984 hPa 0 mm - - -
1787833528 18.33° C 98% 984 hPa 0 mm - - -

* Rain latest hour (hover to see other rain measurements)
** Current wind speed in m/s (hover to see current wind gust speed)